星链-1476 (STARLINK-1476 )

导读

STARLINK-1476是美国太空探索技术公司发射的星链卫星,于2020年6月13日发射升空,隶属于星链低轨互联网星座项目。它旨在为全球用户提供高速低延迟的互联网覆盖服务,依托近地轨道部署,推进星链全球组网进程,拓展了卫星互联网服务的覆盖范围与应用场景。

基本信息
目录编号:
45753
目录名称:
STARLINK-1476
国际标识:
2020-038Z
轨道中心:
EARTH
卫星名称:
星链-1476
卫星全名:
星链-1476 (STARLINK-1476 )
卫星状态:
已陨落 最后检测时间 2025-09-10
发射日期:
2020-06-13 UTC
国别 :
美国 (US)
星等 :
--
该卫星已列入 空间交会检测服务 Space Conjunction Data Service (SCDS) ,当前飞行风险评估等级: 无高风险
轨道信息
数据来源 国际轨道数据
星历时间: 2025-09-10T15:58:08+0800
轨道信息已过期368天
半长轴: 6531.277km
偏心率: 0.0009499
轨道倾角: 53.005°
近地点辐角 225.902°
升交点赤经 205.479°
平近点角 134.125°
近地点: 146.937km
远地点: 159.347km
周期: 87.550分钟
每日圈数: 16.447719
详细信息
固有亮度:
5
最大亮度:
2.5
卫星平台:
Starlink V1.0
覆盖范围:
全球
运营商:
太空探索技术公司
运营商所在国:
美国
制造商(研发单位):
太空探索技术公司
制造商所在国:
美国
使用方式:
暂无
卫星简介
星链(Starlink)计划是由太空探索技术公司(SpaceX)提出的一个巨型低轨卫星互联网星座项目,计划在2019年至2024年间在太空搭建由约1.2万颗卫星组成的“星链”网络,其中1584颗将部署在地球上空550千米处的近地轨道,并从2020年开始工作。该卫星仍在工作。
与全量物体交会距离演化趋势
与全量物体交会风险概率演化趋势